MCF1TR LHBP-LRTR

Flight info

Callsign MCF1TR
Flight time 0h 26m
Altitude 27000
Route GAZDA DCT BUG DCT SEG DCT ROMUX
Aircraft A320/M-SDE3FGHIRWY/LB1

Departure

Time 2026-05-06 11:18
Airport Budapest Liszt Ferenc International Airport (LHBP)

Arrival

Time 2026-05-06 11:44
Airport Timișoara Traian Vuia International Airport (LRTR)
Time Latitude Longitude Altitude Speed Heading
2026-05-06 11:00 47.43515 19.25972 458 ft 0 kts 312°
2026-05-06 11:00 47.43516 19.25971 458 ft 0 kts 312°
2026-05-06 11:14 47.43524 19.25957 456 ft 9 kts 310°
2026-05-06 11:14 47.43583 19.25954 457 ft 12 kts 33°
2026-05-06 11:15 47.43659 19.26041 457 ft 13 kts 15°
2026-05-06 11:15 47.43733 19.25980 457 ft 14 kts 326°
2026-05-06 11:15 47.43822 19.26029 457 ft 16 kts 42°
2026-05-06 11:15 47.43899 19.26131 458 ft 14 kts 42°
2026-05-06 11:16 47.43966 19.26222 457 ft 12 kts 42°
2026-05-06 11:16 47.44023 19.26298 461 ft 14 kts 45°
2026-05-06 11:16 47.44068 19.26427 468 ft 10 kts 75°
2026-05-06 11:16 47.44073 19.26514 470 ft 8 kts 113°
2026-05-06 11:17 47.44067 19.26527 470 ft 0 kts 129°
2026-05-06 11:17 47.44035 19.26578 470 ft 28 kts 132°
2026-05-06 11:17 47.43721 19.27086 469 ft 103 kts 132°
2026-05-06 11:18 47.43086 19.28113 509 ft 157 kts 139°
2026-05-06 11:18 47.42354 19.29307 1176 ft 159 kts 141°
2026-05-06 11:18 47.41693 19.30701 1942 ft 167 kts 128°
2026-05-06 11:18 47.41110 19.32215 2563 ft 179 kts 125°
2026-05-06 11:19 47.40461 19.33942 2903 ft 202 kts 124°
2026-05-06 11:19 47.39738 19.35863 3207 ft 227 kts 124°
2026-05-06 11:19 47.38949 19.37960 3770 ft 244 kts 124°
2026-05-06 11:19 47.37956 19.40034 4366 ft 255 kts 145°
2026-05-06 11:20 47.36333 19.40970 5094 ft 254 kts 182°
2026-05-06 11:20 47.34664 19.40275 6023 ft 252 kts 213°
2026-05-06 11:20 47.33164 19.38960 6961 ft 255 kts 202°
2026-05-06 11:20 47.31381 19.38583 7812 ft 264 kts 182°
2026-05-06 11:21 47.29524 19.38826 8694 ft 271 kts 176°
2026-05-06 11:21 47.28257 19.39079 9259 ft 275 kts 176°
2026-05-06 11:21 47.26348 19.39430 10065 ft 280 kts 178°
2026-05-06 11:21 47.24337 19.39691 10451 ft 301 kts 180°
2026-05-06 11:22 47.22164 19.39847 10720 ft 324 kts 181°
2026-05-06 11:22 47.19821 19.39918 10938 ft 348 kts 182°
2026-05-06 11:22 47.17336 19.39926 11108 ft 371 kts 183°
2026-05-06 11:22 47.14693 19.39908 11464 ft 385 kts 183°
2026-05-06 11:23 47.11987 19.40145 12058 ft 395 kts 172°
2026-05-06 11:23 47.09381 19.41553 12683 ft 406 kts 155°
2026-05-06 11:23 47.06886 19.43525 13327 ft 410 kts 154°
2026-05-06 11:23 47.04369 19.45546 13914 ft 415 kts 154°
2026-05-06 11:24 47.01824 19.47606 14497 ft 418 kts 153°
2026-05-06 11:24 46.99279 19.49665 15092 ft 421 kts 153°
2026-05-06 11:24 46.96705 19.51740 15686 ft 423 kts 154°
2026-05-06 11:24 46.94115 19.53816 16308 ft 424 kts 154°
2026-05-06 11:25 46.91525 19.55884 16877 ft 427 kts 153°
2026-05-06 11:25 46.88905 19.57971 17401 ft 430 kts 154°
2026-05-06 11:25 46.86271 19.60065 17927 ft 433 kts 153°
2026-05-06 11:25 46.83609 19.62177 18427 ft 436 kts 154°
2026-05-06 11:26 46.80933 19.64296 18899 ft 439 kts 154°
2026-05-06 11:26 46.78243 19.66422 19352 ft 441 kts 154°
2026-05-06 11:26 46.75541 19.68558 19802 ft 443 kts 154°
2026-05-06 11:26 46.72819 19.70713 20244 ft 446 kts 153°
2026-05-06 11:27 46.70082 19.72877 20662 ft 449 kts 153°
2026-05-06 11:27 46.67325 19.75057 21085 ft 451 kts 154°
2026-05-06 11:27 46.64562 19.77237 21510 ft 454 kts 154°
2026-05-06 11:27 46.61779 19.79427 21916 ft 457 kts 153°
2026-05-06 11:28 46.58978 19.81628 22289 ft 460 kts 153°
2026-05-06 11:28 46.56156 19.83843 22662 ft 462 kts 153°
2026-05-06 11:28 46.53319 19.86065 23023 ft 465 kts 153°
2026-05-06 11:28 46.50464 19.88298 22994 ft 465 kts 153°
2026-05-06 11:29 46.47617 19.90526 22962 ft 468 kts 153°
2026-05-06 11:29 46.44757 19.92766 22962 ft 463 kts 153°
2026-05-06 11:29 46.41993 19.94937 22877 ft 443 kts 154°
2026-05-06 11:29 46.39329 19.97030 22574 ft 429 kts 154°
2026-05-06 11:30 46.36694 19.99089 21642 ft 431 kts 154°
2026-05-06 11:30 46.34066 20.01128 20938 ft 429 kts 154°
2026-05-06 11:30 46.31458 20.03147 20306 ft 425 kts 154°
2026-05-06 11:30 46.28848 20.05166 19683 ft 421 kts 154°
2026-05-06 11:31 46.26290 20.07201 18853 ft 423 kts 149°
2026-05-06 11:31 46.24028 20.09970 17986 ft 424 kts 133°
2026-05-06 11:31 46.22405 20.13363 17794 ft 397 kts 120°
2026-05-06 11:31 46.21148 20.16747 17641 ft 370 kts 121°
2026-05-06 11:32 46.19951 20.19944 17139 ft 356 kts 121°
2026-05-06 11:32 46.18789 20.23034 16428 ft 350 kts 120°
2026-05-06 11:32 46.17635 20.26104 15698 ft 347 kts 121°
2026-05-06 11:32 46.16492 20.29146 14958 ft 344 kts 121°
2026-05-06 11:33 46.15354 20.32177 14261 ft 342 kts 120°
2026-05-06 11:33 46.14229 20.35172 13543 ft 339 kts 120°
2026-05-06 11:33 46.13113 20.38149 12831 ft 338 kts 120°
2026-05-06 11:33 46.12007 20.41105 12604 ft 330 kts 120°
2026-05-06 11:34 46.10934 20.43975 12482 ft 320 kts 120°
2026-05-06 11:34 46.09892 20.46757 12303 ft 312 kts 121°
2026-05-06 11:34 46.08866 20.49486 12024 ft 308 kts 121°
2026-05-06 11:34 46.07847 20.52189 11698 ft 306 kts 121°
2026-05-06 11:35 46.06831 20.54880 11369 ft 304 kts 121°
2026-05-06 11:35 46.05824 20.57543 11050 ft 302 kts 121°
2026-05-06 11:35 46.04822 20.60192 10728 ft 300 kts 121°
2026-05-06 11:35 46.03826 20.62832 10402 ft 298 kts 121°
2026-05-06 11:36 46.02839 20.65451 10068 ft 297 kts 121°
2026-05-06 11:36 46.01861 20.68045 9716 ft 294 kts 121°
2026-05-06 11:36 46.00887 20.70628 9329 ft 293 kts 121°
2026-05-06 11:36 45.99915 20.73196 8951 ft 291 kts 121°
2026-05-06 11:37 45.98948 20.75743 8565 ft 289 kts 121°
2026-05-06 11:37 45.97987 20.78267 8192 ft 287 kts 121°
2026-05-06 11:37 45.97029 20.80786 7802 ft 286 kts 121°
2026-05-06 11:37 45.96077 20.83286 7424 ft 284 kts 121°
2026-05-06 11:38 45.95134 20.85757 6984 ft 280 kts 121°
2026-05-06 11:38 45.94196 20.88214 6391 ft 281 kts 121°
2026-05-06 11:38 45.93260 20.90663 6008 ft 278 kts 122°
2026-05-06 11:38 45.92339 20.93072 5575 ft 273 kts 121°
2026-05-06 11:39 45.91428 20.95449 5161 ft 268 kts 122°
2026-05-06 11:39 45.90552 20.97742 4980 ft 258 kts 121°
2026-05-06 11:39 45.89708 20.99949 4732 ft 247 kts 121°
2026-05-06 11:39 45.88918 21.02063 4480 ft 234 kts 116°
2026-05-06 11:40 45.88346 21.04179 4244 ft 222 kts 112°
2026-05-06 11:40 45.87846 21.06242 3970 ft 215 kts 112°
2026-05-06 11:40 45.87356 21.08235 3709 ft 210 kts 112°
2026-05-06 11:40 45.86874 21.10181 3439 ft 204 kts 112°
2026-05-06 11:41 45.86410 21.12052 3186 ft 194 kts 112°
2026-05-06 11:41 45.85966 21.13837 2923 ft 186 kts 114°
2026-05-06 11:41 45.85539 21.15551 2688 ft 181 kts 114°
2026-05-06 11:41 45.85120 21.17236 2452 ft 179 kts 112°
2026-05-06 11:42 45.84707 21.18896 2224 ft 170 kts 112°
2026-05-06 11:42 45.84323 21.20437 2014 ft 160 kts 112°
2026-05-06 11:42 45.83955 21.21912 1784 ft 154 kts 113°
2026-05-06 11:42 45.83590 21.23370 1591 ft 154 kts 114°
2026-05-06 11:43 45.83231 21.24808 1382 ft 152 kts 112°
2026-05-06 11:43 45.82878 21.26219 1192 ft 149 kts 115°
2026-05-06 11:43 45.82528 21.27618 988 ft 150 kts 113°
2026-05-06 11:44 45.81824 21.30434 587 ft 150 kts 113°
2026-05-06 11:44 45.81472 21.31850 375 ft 151 kts 113°
2026-05-06 11:44 45.81161 21.33077 348 ft 97 kts 110°
2026-05-06 11:44 45.81032 21.33551 354 ft 21 kts 141°
2026-05-06 11:45 45.80896 21.33525 342 ft 17 kts 210°
2026-05-06 11:45 45.80868 21.33402 350 ft 14 kts 287°
2026-05-06 11:45 45.80902 21.33270 345 ft 14 kts 290°
2026-05-06 11:45 45.80934 21.33141 346 ft 13 kts 290°
2026-05-06 11:46 45.80963 21.33020 344 ft 13 kts 290°
2026-05-06 11:46 45.80991 21.32908 342 ft 11 kts 290°
2026-05-06 11:46 45.81018 21.32801 345 ft 14 kts 290°
2026-05-06 11:46 45.81057 21.32651 349 ft 17 kts 290°
2026-05-06 11:47 45.81089 21.32493 342 ft 14 kts 264°
2026-05-06 11:47 45.81062 21.32372 342 ft 12 kts 280°
2026-05-06 11:47 45.81086 21.32262 346 ft 11 kts 290°
2026-05-06 11:47 45.81111 21.32166 342 ft 10 kts 290°
2026-05-06 11:48 45.81102 21.32096 346 ft 8 kts 210°
2026-05-06 11:48 45.81077 21.32080 342 ft 0 kts 199°